TimePST,TemperatureF,Dew PointF,Humidity,Sea Level PressureIn,VisibilityMPH,Wind Direction,Wind SpeedMPH,Gust SpeedMPH,PrecipitationIn,Events,Conditions,WindDirDegrees,DateUTC
12:15 AM,37.4,32.0,81,30.08,10.0,Calm,Calm,-,N/A,,Clear,0,2014-01-03 08:15:00
12:35 AM,39.2,33.8,81,30.08,10.0,Calm,Calm,-,N/A,,Clear,0,2014-01-03 08:35:00
12:55 AM,39.2,35.6,87,30.08,10.0,Calm,Calm,-,N/A,,Clear,0,2014-01-03 08:55:00
1:15 AM,41.0,35.6,81,30.08,10.0,Calm,Calm,-,N/A,,Clear,0,2014-01-03 09:15:00
1:35 AM,37.4,33.8,87,30.07,10.0,Calm,Calm,-,N/A,,Clear,0,2014-01-03 09:35:00
1:55 AM,37.4,33.8,87,30.07,10.0,Calm,Calm,-,N/A,,Clear,0,2014-01-03 09:55:00
2:15 AM,39.2,33.8,81,30.08,10.0,Calm,Calm,-,N/A,,Clear,0,2014-01-03 10:15:00
2:35 AM,39.2,33.8,81,30.08,10.0,Calm,Calm,-,N/A,,Clear,0,2014-01-03 10:35:00
2:55 AM,33.8,32.0,93,30.08,10.0,Calm,Calm,-,N/A,,Clear,0,2014-01-03 10:55:00
3:15 AM,35.6,32.0,87,30.08,10.0,Calm,Calm,-,N/A,,Clear,0,2014-01-03 11:15:00
3:35 AM,37.4,35.6,93,30.07,10.0,SSW,3.5,-,N/A,,Clear,210,2014-01-03 11:35:00
3:55 AM,37.4,35.6,93,30.07,10.0,Calm,Calm,-,N/A,,Clear,0,2014-01-03 11:55:00
4:15 AM,32.0,32.0,100,30.07,10.0,Calm,Calm,-,N/A,,Clear,0,2014-01-03 12:15:00
4:35 AM,37.4,35.6,93,30.07,10.0,Calm,Calm,-,N/A,,Clear,0,2014-01-03 12:35:00
4:55 AM,35.6,33.8,93,30.06,10.0,Calm,Calm,-,N/A,,Clear,0,2014-01-03 12:55:00
5:15 AM,35.6,33.8,93,30.06,10.0,Calm,Calm,-,N/A,,Clear,0,2014-01-03 13:15:00
5:35 AM,35.6,35.6,100,30.07,10.0,Calm,Calm,-,N/A,,Clear,0,2014-01-03 13:35:00
5:55 AM,33.8,33.8,100,30.07,10.0,Calm,Calm,-,N/A,,Clear,0,2014-01-03 13:55:00
6:15 AM,35.6,35.6,100,30.07,10.0,South,3.5,-,N/A,,Clear,190,2014-01-03 14:15:00
6:35 AM,35.6,35.6,100,30.07,10.0,Calm,Calm,-,N/A,,Clear,0,2014-01-03 14:35:00
6:55 AM,33.8,33.8,100,30.07,10.0,Calm,Calm,-,N/A,,Clear,0,2014-01-03 14:55:00
7:15 AM,33.8,33.8,100,30.08,10.0,NNW,3.5,-,N/A,,Clear,330,2014-01-03 15:15:00
7:35 AM,35.6,33.8,93,30.07,10.0,Calm,Calm,-,N/A,,Clear,0,2014-01-03 15:35:00
7:55 AM,35.6,35.6,100,30.08,10.0,Calm,Calm,-,N/A,,Clear,0,2014-01-03 15:55:00
8:15 AM,35.6,35.6,100,30.09,10.0,Calm,Calm,-,N/A,,Clear,0,2014-01-03 16:15:00
8:35 AM,35.6,35.6,100,30.09,10.0,Calm,Calm,-,N/A,,Clear,0,2014-01-03 16:35:00
8:55 AM,39.2,37.4,93,30.09,10.0,Calm,Calm,-,N/A,,Clear,0,2014-01-03 16:55:00
9:15 AM,41.0,37.4,87,30.09,10.0,Calm,Calm,-,N/A,,Clear,0,2014-01-03 17:15:00
9:35 AM,44.6,39.2,81,30.09,10.0,Calm,Calm,-,N/A,,Clear,0,2014-01-03 17:35:00
9:55 AM,48.2,39.2,71,30.09,10.0,Calm,Calm,-,N/A,,Clear,0,2014-01-03 17:55:00
10:15 AM,53.6,37.4,54,30.09,10.0,Calm,Calm,-,N/A,,Clear,0,2014-01-03 18:15:00
10:35 AM,53.6,39.2,58,30.08,10.0,SSE,3.5,-,N/A,,Clear,150,2014-01-03 18:35:00
10:55 AM,57.2,39.2,51,30.07,10.0,SSW,5.8,-,N/A,,Clear,200,2014-01-03 18:55:00
11:15 AM,57.2,37.4,48,30.06,10.0,Calm,Calm,-,N/A,,Clear,0,2014-01-03 19:15:00
11:35 AM,59.0,37.4,45,30.05,10.0,SSW,4.6,-,N/A,,Clear,210,2014-01-03 19:35:00
11:55 AM,60.8,35.6,39,30.03,10.0,Calm,Calm,-,N/A,,Clear,0,2014-01-03 19:55:00
12:15 PM,62.6,35.6,37,30.02,10.0,SSW,3.5,-,N/A,,Clear,200,2014-01-03 20:15:00
12:35 PM,64.4,35.6,34,30.01,10.0,SSW,4.6,-,N/A,,Clear,200,2014-01-03 20:35:00
12:55 PM,64.4,35.6,34,30.00,10.0,SE,5.8,-,N/A,,Clear,130,2014-01-03 20:55:00
1:15 PM,66.2,35.6,32,29.99,10.0,SE,5.8,-,N/A,,Clear,140,2014-01-03 21:15:00
1:35 PM,64.4,35.6,34,29.99,10.0,SE,6.9,-,N/A,,Clear,130,2014-01-03 21:35:00
1:55 PM,64.4,35.6,34,29.99,10.0,ESE,6.9,-,N/A,,Clear,120,2014-01-03 21:55:00
2:15 PM,64.4,35.6,34,29.99,10.0,SE,4.6,-,N/A,,Clear,130,2014-01-03 22:15:00
2:35 PM,64.4,35.6,34,29.98,10.0,SE,6.9,-,N/A,,Clear,130,2014-01-03 22:35:00
2:55 PM,64.4,37.4,37,29.98,10.0,SE,6.9,-,N/A,,Clear,130,2014-01-03 22:55:00
3:15 PM,62.6,39.2,42,29.98,9.0,SE,5.8,-,N/A,,Clear,130,2014-01-03 23:15:00
3:35 PM,62.6,37.4,39,29.98,9.0,SE,5.8,-,N/A,,Clear,130,2014-01-03 23:35:00
3:55 PM,62.6,37.4,39,29.97,10.0,SE,3.5,-,N/A,,Clear,140,2014-01-03 23:55:00
4:15 PM,62.6,39.2,42,29.97,10.0,Calm,Calm,-,N/A,,Clear,0,2014-01-04 00:15:00
4:35 PM,62.6,37.4,39,29.97,10.0,South,5.8,-,N/A,,Clear,190,2014-01-04 00:35:00
4:55 PM,60.8,37.4,42,29.97,10.0,South,4.6,-,N/A,,Clear,180,2014-01-04 00:55:00
5:15 PM,57.2,37.4,48,29.97,10.0,South,3.5,-,N/A,,Clear,170,2014-01-04 01:15:00
5:35 PM,53.6,37.4,54,29.97,10.0,SSW,3.5,-,N/A,,Clear,200,2014-01-04 01:35:00
5:55 PM,48.2,35.6,62,29.97,10.0,North,4.6,-,N/A,,Clear,350,2014-01-04 01:55:00
6:15 PM,48.2,37.4,66,29.97,10.0,North,3.5,-,N/A,,Clear,350,2014-01-04 02:15:00
6:35 PM,48.2,35.6,62,29.97,10.0,North,5.8,-,N/A,,Clear,350,2014-01-04 02:35:00
6:55 PM,48.2,37.4,66,29.97,10.0,Calm,Calm,-,N/A,,Clear,0,2014-01-04 02:55:00
7:15 PM,48.2,37.4,66,29.97,10.0,Calm,Calm,-,N/A,,Clear,0,2014-01-04 03:15:00
7:35 PM,46.4,37.4,71,29.97,10.0,Calm,Calm,-,N/A,,Clear,0,2014-01-04 03:35:00
7:55 PM,42.8,35.6,76,29.98,10.0,North,5.8,-,N/A,,Clear,350,2014-01-04 03:55:00
8:15 PM,42.8,37.4,81,29.98,10.0,NW,3.5,-,N/A,,Clear,310,2014-01-04 04:15:00
8:35 PM,44.6,37.4,76,29.98,10.0,Calm,Calm,-,N/A,,Clear,0,2014-01-04 04:35:00
8:55 PM,44.6,37.4,76,29.98,10.0,SSW,3.5,-,N/A,,Clear,200,2014-01-04 04:55:00
9:15 PM,39.2,35.6,87,29.99,10.0,Calm,Calm,-,N/A,,Clear,0,2014-01-04 05:15:00
9:35 PM,42.8,37.4,81,29.99,10.0,Calm,Calm,-,N/A,,Clear,0,2014-01-04 05:35:00
9:55 PM,42.8,37.4,81,30.00,10.0,Calm,Calm,-,N/A,,Clear,0,2014-01-04 05:55:00
10:15 PM,41.0,37.4,87,30.00,10.0,South,3.5,-,N/A,,Clear,190,2014-01-04 06:15:00
10:35 PM,32.0,32.0,100,30.00,10.0,NNE,3.5,-,N/A,,Clear,20,2014-01-04 06:35:00
10:55 PM,39.2,37.4,93,30.00,10.0,Calm,Calm,-,N/A,,Clear,0,2014-01-04 06:55:00
11:15 PM,37.4,37.4,100,30.01,10.0,NW,3.5,-,N/A,,Clear,320,2014-01-04 07:15:00
11:35 PM,39.2,37.4,93,30.01,10.0,Calm,Calm,-,N/A,,Clear,0,2014-01-04 07:35:00
11:55 PM,35.6,35.6,100,30.01,10.0,NNW,4.6,-,N/A,,Clear,330,2014-01-04 07:55:00